Norfolk, NE

9:10 PM CST on December 13, 2019 (GMT -0600)
Stefan Memorial

Weather History for KOFK - October, 2019

Change the Weather History Date:

Saturday, October 26, 2019

  Actual Average Record
Temperature  
Mean Temperature 52 °F 47 °F  
Max Temperature 67 °F 59 °F 89 °F (1922)
Min Temperature 37 °F 35 °F 14 °F (1942)
Degree Days  
Heating Degree Days 13 18  
Month to date heating degree days 413 346  
Since 1 July heating degree days 443 488  
Cooling Degree Days 0 0  
Month to date cooling degree days 0 8  
Year to date cooling degree days 949 914  
Growing Degree Days 2 (Base 50)    
Moisture  
Dew Point 29 °F    
Average Humidity 46    
Maximum Humidity 70    
Minimum Humidity 22    
Precipitation  
Precipitation 0.00 in 0.05 in 0.66 in (1998)
Month to date precipitation 1.93 1.82  
Year to date precipitation 23.96 25.04  
Snow  
Snow 0.00 in 0.00 in - ()
Month to date snowfall T 0.5  
Since 1 July snowfall T 0.5  
Since 1 September snowfall T 0.5  
Snow Depth 0.00 in    
Sea Level Pressure  
Sea Level Pressure 29.78 in    
Wind  
Wind Speed 16 mph (South)    
Max Wind Speed 25 mph    
Max Gust Speed 35 mph    
Visibility 10 miles    
Events      
T = Trace of Precipitation, MM = Missing Value Source: NWS Daily Summary

Daily Weather History Graph

Daily Weather History Graph

Search for Another Location

Airport or City:

Astronomy

Oct. 26, 2019 Rise Set
Actual Time 7:54 AM CDT 6:31 PM CDT
Civil Twilight 7:26 AM CDT 7:00 PM CDT
Nautical Twilight 6:53 AM CDT 7:33 PM CDT
Astronomical Twilight 6:21 AM CDT 8:05 PM CDT
Moon 5:48 AM CDT (10/26) 6:10 PM CDT (10/26)
Length of Visible Light 11h 34m
Length of Day
10h 37m
Waning Crescent, 3% of the Moon is Illuminated
Oct 26
Waning Crescent
Oct 27
New
Nov 4
First Quarter
Nov 12
Full
Nov 19
Last Quarter

Hourly Weather History & Observations

Time (CDT) Temp. Windchill Dew Point Humidity Pressure Visibility Wind Dir Wind Speed Gust Speed Precip Events Conditions
12:56 AM 42.1 °F 33.9 °F 25.0 °F 51% 29.99 in 10.0 mi South 17.3 mph 31.1 mph N/A   Clear
1:56 AM 39.9 °F 31.4 °F 25.0 °F 55% 29.98 in 10.0 mi South 16.1 mph - N/A   Clear
2:56 AM 39.0 °F 31.0 °F 25.0 °F 57% 29.97 in 10.0 mi South 13.8 mph - N/A   Clear
3:56 AM 39.0 °F 31.0 °F 25.0 °F 57% 29.94 in 10.0 mi South 13.8 mph - N/A   Clear
4:56 AM 39.0 °F 30.6 °F 25.0 °F 57% 29.91 in 10.0 mi South 15.0 mph 23.0 mph N/A   Clear
5:56 AM 37.0 °F 29.3 °F 25.0 °F 62% 29.90 in 10.0 mi South 11.5 mph - N/A   Clear
6:56 AM 37.0 °F 27.7 °F 26.1 °F 65% 29.86 in 10.0 mi South 16.1 mph 23.0 mph N/A   Clear
7:56 AM 37.9 °F 29.6 °F 26.1 °F 62% 29.83 in 10.0 mi South 13.8 mph - N/A   Clear
8:56 AM 39.9 °F 32.5 °F 27.0 °F 60% 29.83 in 10.0 mi South 12.7 mph 20.7 mph N/A   Clear
9:56 AM 46.0 °F 41.0 °F 27.0 °F 47% 29.80 in 10.0 mi South 10.4 mph 20.7 mph N/A   Clear
10:56 AM 52.0 °F - 26.1 °F 37% 29.76 in 10.0 mi South 19.6 mph 25.3 mph N/A   Clear
11:56 AM 57.0 °F - 27.0 °F 32% 29.73 in 10.0 mi South 15.0 mph - N/A   Clear
12:56 PM 60.1 °F - 28.0 °F 30% 29.70 in 10.0 mi South 17.3 mph 24.2 mph N/A   Clear
1:56 PM 64.0 °F - 28.0 °F 26% 29.66 in 10.0 mi South 20.7 mph 27.6 mph N/A   Clear
2:56 PM 66.0 °F - 28.9 °F 25% 29.62 in 10.0 mi South 20.7 mph 31.1 mph N/A   Clear
3:56 PM 66.0 °F - 27.0 °F 23% 29.60 in 10.0 mi South 20.7 mph 27.6 mph N/A   Clear
4:56 PM 66.0 °F - 28.0 °F 24% 29.61 in 10.0 mi South 16.1 mph 23.0 mph N/A   Clear
5:56 PM 62.1 °F - 28.9 °F 29% 29.63 in 10.0 mi South 10.4 mph - N/A   Clear
6:56 PM 53.1 °F - 28.9 °F 40% 29.65 in 10.0 mi South 6.9 mph - N/A   Clear
7:56 PM 55.0 °F - 39.0 °F 55% 29.70 in 10.0 mi NNW 19.6 mph 29.9 mph N/A   Clear
8:56 PM 51.1 °F - 39.0 °F 63% 29.72 in 10.0 mi NNW 16.1 mph 26.5 mph N/A   Clear
9:56 PM 48.0 °F - 37.0 °F 66% 29.76 in 10.0 mi NNW 18.4 mph 25.3 mph N/A   Clear
10:56 PM 45.0 °F 37.1 °F 35.1 °F 68% 29.77 in 10.0 mi NNW 19.6 mph 26.5 mph N/A   Clear
11:56 PM 43.0 °F 35.4 °F 33.1 °F 68% 29.79 in 10.0 mi NW 16.1 mph - N/A   Clear